This is the latest recevied weather packets stored in our database for station/object KC5DP. If no packets are shown the sender has not sent any weather packets the latest 10 day(s).
| Time | Temp. | Humidity | Pressure | Rain* | Wind** | Luminosity | Snow |
|---|---|---|---|---|---|---|---|
| 1778024386 | 25.56° C | 78% | 1009.8 hPa | 0 mm | - | 37 W/m² | - |
| 1778024084 | 26.11° C | 78% | 1009.8 hPa | 0 mm | - | 13 W/m² | - |
| 1778023782 | 26.11° C | 78% | 1009.9 hPa | 0 mm | - | 34 W/m² | - |
| 1778023480 | 26.11° C | 77% | 1009.9 hPa | 0 mm | - | 67 W/m² | - |
| 1778023176 | 26.11° C | 77% | 1009.8 hPa | 0 mm | - | 81 W/m² | - |
| 1778022873 | 26.11° C | 78% | 1009.7 hPa | 0 mm | - | 53 W/m² | - |
| 1778022572 | 26.11° C | 77% | 1009.9 hPa | 0 mm | - | 61 W/m² | - |
| 1778022269 | 26.11° C | 77% | 1009.9 hPa | 0 mm | - | 53 W/m² | - |
| 1778021965 | 26.11° C | 76% | 1009.6 hPa | 0 mm | - | 65 W/m² | - |
| 1778021663 | 26.11° C | 77% | 1009.9 hPa | 0 mm | - | 49 W/m² | - |
| 1778021358 | 26.11° C | 76% | 1009.9 hPa | 0 mm | - | 40 W/m² | - |
| 1778021056 | 26.67° C | 74% | 1009.7 hPa | 0 mm | - | 26 W/m² | - |
| 1778020752 | 26.67° C | 74% | 1009.9 hPa | 0 mm | - | 55 W/m² | - |
| 1778020449 | 26.67° C | 73% | 1009.9 hPa | 0 mm | - | 78 W/m² | - |
| 1778020145 | 26.67° C | 73% | 1010 hPa | 0 mm | - | 99 W/m² | - |
| 1778019842 | 26.67° C | 72% | 1009.8 hPa | 0 mm | - | 93 W/m² | - |
| 1778019538 | 27.22° C | 72% | 1009.9 hPa | 0 mm | - | 105 W/m² | - |
| 1778019235 | 27.22° C | 72% | 1009.8 hPa | 0 mm | - | 101 W/m² | - |
| 1778018874 | 26.67° C | 73% | 1009.9 hPa | 0 mm | - | 93 W/m² | - |
| 1778018571 | 26.67° C | 73% | 1009.9 hPa | 0 mm | - | 93 W/m² | - |
| 1778018269 | 26.67° C | 71% | 1009.9 hPa | 0 mm | - | 102 W/m² | - |
| 1778017967 | 27.22° C | 72% | 1009.9 hPa | 0 mm | - | 72 W/m² | - |
| 1778017664 | 27.22° C | 70% | 1009.8 hPa | 0 mm | - | 114 W/m² | - |
| 1778017362 | 27.22° C | 70% | 1010.1 hPa | 0 mm | - | 124 W/m² | - |
| 1778017059 | 27.22° C | 69% | 1009.8 hPa | 0 mm | - | 108 W/m² | - |
* Rain latest hour (hover to see other rain measurements)
** Current wind speed in m/s (hover to see current wind gust speed)